Temp
19 19 19 19 19 20 20 20 19 19 19 19 19 19 19 19 19 19 18 18 18 18 18 18 18 17 17 17 18 17 17 17 16 17 17 17 17 17 17 16 17 17
19 20 20 19 20 20 20 20 20 20 20 19 19 19 19 19 19 19 19 18 18 18 18 18 18 17 17 17 17 16 16 17 16 16 17 17 17 17 17 16 16 17
19 19 19 19 20 20 20 20 20 20 20 20 19 19 19 19 19 19 19 19 19 18 18 18 18 18 17 17 17 16 16 16 16 16 17 17 16 16 17 17 17 17
19 19 20 20 20 20 20 20 20 20 19 19 19 18 18 18 18 18 18 19 19 18 18 18 18 18 17 17 17 17 17 16 15 16 16 17 17 16 16 17 17 17
19 20 20 20 20 20 20 20 19 19 19 19 19 18 18 18 18 18 18 19 19 18 18 18 18 18 18 18 18 18 17 15 15 16 15 16 17 17 17 17 17 17
20 20 19 19 19 20 20 19 19 19 19 19 19 19 19 18 19 19 19 19 19 18 18 18 18 18 18 18 18 18 18 17 16 17 16 15 15 16 17 17 16 16
20 19 19 19 19 20 20 20 19 19 19 19 19 19 19 19 19 19 19 19 19 19 19 19 19 18 18 18 18 18 18 17 17 17 17 17 16 16 17 17 16 17
20 20 20 20 20 20 20 19 19 19 19 19 19 19 19 19 19 19 19 19 19 19 19 19 19 18 18 18 18 18 18 18 18 18 18 18 17 17 17 17 17 17
19 20 20 20 20 20 20 19 19 19 19 19 19 19 19 19 19 19 19 19 19 19 19 19 19 18 18 18 18 18 18 18 18 18 18 18 18 18 18 18 18 17
20 20 19 19 20 20 19 19 19 19 19 19 19 19 19 19 19 19 19 19 19 19 19 18 19 18 18 19 19 19 19 19 19 19 19 19 19 19 18 18 18 18
20 20 19 19 19 19 19 19 19 19 19 19 19 19 19 19 19 19 19 19 19 19 19 19 19 19 19 19 19 19 19 19 19 19 19 19 19 19 19 18 18 17
19 19 19 19 19 19 19 19 19 19 19 19 19 19 19 19 19 20 19 19 19 19 19 19 19 19 19 19 19 19 20 20 19 19 19 19 20 20 19 19 19 18
19 19 19 19 19 19 19 19 19 19 19 19 19 19 19 19 19 20 20 20 20 20 19 19 19 19 19 19 19 19 19 19 19 19 20 20 20 20 20 19 19 19
19 19 19 19 19 19 19 19 19 19 19 19 19 19 19 19 19 19 20 20 19 19 18 18 18 18 18 18 18 18 19 19 19 19 19 20 20 20 20 19 19 19
18 18 19 19 19 18 19 19 19 19 19 19 19 19 19 19 19 19 19 19 18 18 18 18 18 18 18 18 18 18 18 18 18 19 19 19 19 19 19 19 19 19
18 17 17 18 19 18 19 18 18 19 19 19 19 19 19 19 19 19 19 18 18 17 18 18 17 17 17 18 18 18 18 18 18 18 19 19 19 19 19 19 19 19
17 16 16 17 18 18 18 18 18 19 19 19 19 19 19 19 19 19 18 17 17 17 17 17 17 17 17 17 17 18 18 18 18 18 18 19 19 19 19 19 19 18
16 16 15 16 17 18 18 17 18 18 18 18 18 18 19 18 18 17 17 16 17 17 17 16 16 17 17 17 17 17 18 18 18 18 18 19 19 19 19 19 19 18
16 16 16 16 17 17 17 16 17 17 17 17 17 18 18 17 16 16 15 16 16 16 16 16 16 16 16 17 17 17 17 18 18 18 18 19 19 19 18 18 18 18
15 15 15 16 16 16 16 16 15 15 15 16 16 16 16 15 15 15 15 15 16 16 15 15 15 16 16 16 17 17 17 17 17 17 18 18 18 18 18 17 18 17
13 13 14 14 14 15 15 15 15 14 14 15 15 15 14 14 14 14 14 14 14 14 14 14 14 14 15 16 16 16 17 17 17 17 17 17 17 17 17 17 17 16
12 12 12 12 13 13 14 14 14 14 14 14 14 14 13 13 13 13 13 12 13 13 13 13 13 13 14 15 15 16 16 16 16 17 17 16 16 17 17 16 16 15
10 10 10 10 11 12 12 12 12 13 13 13 13 13 12 12 12 12 12 11 12 12 12 12 12 12 13 14 14 15 16 16 17 17 16 16 16 16 16 16 15 15
8 8 9 9 9 9 9 10 11 11 11 12 12 12 12 12 11 11 11 11 11 11 11 12 12 12 13 13 14 14 15 15 16 16 16 16 16 16 15 15 15 15
7 7 8 8 8 8 8 9 9 10 10 10 10 11 11 11 11 11 10 10 10 10 11 11 12 12 13 13 13 14 14 14 14 15 15 15 15 15 14 14 14 14
7 7 7 7 8 8 8 8 9 9 9 9 9 10 10 10 10 10 10 10 10 10 10 11 11 11 11 12 13 13 13 13 14 14 13 13 13 13 13 13 12 12
Height
788 789 791 793 796 798 800 802 804 806 808 810 810 811 811 812 813 814 815 816 818 819 820 821 822 823 824 825 826 827 828 829 830 831 832 834 835 835 836 837 838 839
788 790 792 793 795 797 799 801 804 806 808 809 810 810 811 812 813 814 815 816 817 819 820 821 822 823 824 825 827 828 829 829 831 832 833 835 836 836 836 837 838 839
788 790 792 793 795 796 798 801 804 806 807 808 809 810 811 812 813 814 815 816 817 818 819 821 821 822 824 825 826 828 828 829 831 833 833 834 835 836 836 836 838 839
788 791 792 793 794 796 798 801 803 805 807 808 809 811 811 812 813 814 815 816 816 817 819 820 821 822 823 824 825 827 827 830 832 833 833 833 833 834 835 836 837 838
787 790 793 794 795 797 799 801 803 805 807 809 810 811 812 812 813 814 815 816 816 817 818 820 821 822 823 824 825 826 827 830 832 832 834 834 833 833 834 835 837 838
785 789 793 795 797 798 800 802 804 805 807 808 810 811 812 813 813 814 815 815 816 817 818 819 820 822 823 824 825 826 826 828 830 831 833 834 835 834 834 835 837 838
784 788 792 796 798 799 801 802 804 805 807 808 810 811 812 813 814 814 815 815 816 817 818 819 820 821 823 823 824 825 826 827 828 829 831 832 834 835 835 835 837 838
782 786 791 795 798 801 802 803 804 805 807 808 809 811 812 813 813 813 814 815 815 817 817 819 820 821 822 823 823 824 825 826 827 828 829 831 832 834 835 835 836 837
781 784 789 794 798 800 802 803 805 806 807 808 809 810 811 812 813 813 814 814 815 816 817 818 820 820 822 823 823 824 824 825 826 827 829 830 831 833 834 835 836 837
778 782 788 793 796 799 802 803 805 806 807 808 808 809 810 811 812 813 813 814 815 816 817 818 819 820 821 822 823 824 824 825 826 827 828 829 830 832 833 834 835 836
775 779 785 790 794 797 800 802 804 805 806 807 808 809 810 811 811 812 813 813 814 815 816 817 818 819 820 821 822 823 823 824 825 826 828 828 830 831 832 833 834 836
774 777 782 787 792 795 798 801 803 805 806 807 808 808 809 811 811 812 812 813 814 814 815 816 817 818 820 821 822 822 823 824 825 826 827 828 829 830 831 832 833 835
775 778 782 786 790 793 797 800 802 804 805 806 807 808 809 810 811 811 812 812 813 813 813 815 816 817 819 820 821 822 823 823 824 826 826 827 829 830 830 832 833 834
775 779 783 786 789 793 796 799 801 803 805 805 806 807 809 810 810 811 812 812 813 813 813 814 816 817 819 820 821 822 823 824 824 826 826 827 829 830 830 832 834 835
773 778 783 785 789 792 795 798 800 802 804 805 806 807 808 810 810 811 811 812 812 813 814 815 816 818 819 820 821 822 823 824 825 826 827 828 829 830 832 833 834 835
771 777 782 785 787 791 794 797 799 802 803 805 806 807 808 809 810 811 811 811 812 813 815 816 817 819 820 821 822 823 824 825 826 827 828 829 830 831 833 834 835 836
773 776 782 785 786 789 793 796 799 801 803 805 806 806 808 809 810 811 811 811 813 814 815 817 818 820 821 821 822 823 824 825 826 827 828 829 830 832 833 834 835 836
776 778 784 787 787 789 793 795 797 800 802 804 805 806 808 810 810 810 811 812 813 814 816 818 819 820 821 822 823 824 825 825 826 827 828 829 830 831 832 834 835 836
779 781 785 786 786 789 792 795 797 800 802 804 805 806 808 809 810 810 811 812 813 815 817 819 820 821 822 823 823 824 825 826 826 827 828 829 830 831 832 833 834 836
781 783 785 785 786 789 792 795 798 800 802 803 804 806 807 809 810 811 812 813 814 816 818 819 821 822 823 823 824 825 826 826 827 828 828 829 830 831 832 833 835 836
782 784 785 786 788 790 792 795 799 801 803 804 805 807 808 809 811 812 813 815 816 817 819 820 822 823 824 824 825 825 826 827 828 828 829 830 831 832 833 834 835 836
784 785 787 788 790 792 793 797 800 802 804 805 806 808 809 810 812 814 815 816 817 819 820 821 823 824 824 825 825 826 827 828 829 830 830 831 832 834 834 835 836 836
788 788 790 791 793 795 797 799 801 803 805 807 808 810 810 811 813 815 817 818 819 820 822 823 824 825 826 826 826 827 827 828 829 830 831 832 834 834 835 835 836 837
792 793 794 795 797 800 802 802 804 805 807 808 810 811 812 813 815 816 818 820 820 822 823 824 825 826 827 827 827 828 828 828 829 830 831 833 834 835 835 835 836 837
798 799 799 800 801 804 806 806 807 808 809 810 811 812 813 815 817 818 820 821 822 823 825 826 827 827 828 829 828 829 829 829 830 830 831 833 834 836 837 836 837 838
804 804 805 805 806 808 810 812 812 811 811 812 813 813 815 817 819 820 821 822 824 825 826 827 828 828 829 830 830 830 831 831 831 832 833 834 835 837 838 838 839 839
Wind_Speed
18 17 19 19 17 18 18 18 18 16 15 14 13 12 11 9 9 8 7 7 6 5 5 5 6 6 6 7 8 9 11 13 15 13 12 14 15 17 18 16 15 15
17 16 17 17 15 15 15 15 16 14 14 14 13 12 12 10 9 8 8 7 7 8 5 4 6 6 6 8 9 10 11 12 14 13 12 13 17 17 16 16 16 15
16 15 15 15 15 15 15 15 15 14 13 13 13 12 11 10 9 8 8 7 7 9 7 5 5 5 6 7 8 10 11 12 12 12 11 11 16 17 15 15 16 15
17 15 14 15 16 17 16 15 14 13 14 13 12 12 11 9 8 7 7 7 7 9 9 7 6 6 6 6 6 7 9 11 12 14 12 11 12 13 15 15 15 15
19 16 15 16 17 17 16 15 15 13 13 13 12 11 10 9 8 7 7 7 7 8 9 8 7 8 7 5 6 6 7 9 13 15 15 14 11 9 12 14 13 14
20 18 16 17 17 17 16 15 15 14 14 13 12 11 10 9 8 7 7 7 7 8 8 8 7 8 7 6 5 5 6 8 11 13 15 16 14 10 10 12 13 14
21 20 19 18 17 17 16 16 15 15 14 13 12 11 10 9 8 7 7 6 7 7 8 8 8 7 7 7 6 5 6 8 9 10 11 13 16 13 11 12 14 14
23 23 21 20 19 18 17 17 16 15 14 13 12 11 10 9 8 7 6 6 6 6 7 7 8 8 7 7 7 5 6 8 7 8 9 10 13 13 12 13 14 14
25 25 24 21 20 19 17 17 16 16 14 14 13 11 10 8 8 7 6 6 6 7 7 7 7 8 7 7 8 7 7 7 6 7 9 10 10 12 12 11 13 14
27 27 26 24 20 19 18 17 17 15 14 13 12 11 9 8 8 7 6 7 8 8 8 8 8 7 7 7 7 7 8 8 7 7 9 9 10 12 12 11 13 14
29 27 27 25 21 20 19 17 16 15 14 13 12 11 9 8 8 7 7 8 8 9 9 8 8 7 7 7 6 6 8 8 9 8 8 9 9 12 15 14 13 14
26 26 27 25 22 21 20 18 16 15 14 13 12 12 9 8 8 7 9 9 7 8 10 10 9 8 8 7 6 6 6 7 10 8 7 9 8 10 15 13 11 14
22 24 25 23 23 22 20 18 17 15 15 13 12 12 9 8 8 6 7 9 6 6 11 12 11 11 11 9 6 5 5 7 10 6 4 6 6 9 13 11 8 11
22 24 25 22 23 24 21 19 18 16 15 13 13 13 10 8 8 6 6 9 9 10 12 12 11 13 12 10 9 7 6 7 7 6 6 7 7 9 12 10 8 9
25 24 24 23 24 24 21 19 18 17 16 15 14 12 10 9 9 8 7 10 11 11 11 9 10 11 10 10 11 11 7 4 4 4 6 5 5 8 9 8 8 9
27 23 22 23 25 23 21 20 19 17 17 16 14 13 12 11 10 8 8 10 10 9 9 8 8 9 9 9 9 9 8 6 6 5 4 4 4 4 4 5 7 9
26 25 23 23 24 24 22 20 19 18 18 17 15 15 14 12 11 11 12 13 11 9 8 7 6 6 6 7 7 6 7 9 8 6 6 5 5 6 6 6 8 10
23 26 24 23 23 23 21 19 18 19 19 17 16 16 14 13 13 14 14 15 13 10 9 7 6 5 4 4 5 4 6 9 9 6 4 3 3 4 4 5 9 10
22 25 24 23 24 23 22 21 21 21 19 18 17 15 14 15 15 15 14 14 12 11 10 9 7 6 4 4 4 4 5 5 6 6 3 2 3 4 6 6 8 11
19 22 23 25 25 25 24 23 22 21 20 20 19 18 18 18 17 15 14 12 12 12 11 10 9 7 6 5 5 4 5 4 5 7 5 5 6 7 8 9 9 10
21 22 23 25 25 25 26 24 22 21 20 20 21 20 19 18 16 15 14 13 13 13 12 11 10 8 6 6 6 6 6 5 5 6 6 7 7 8 7 7 8 9
24 24 24 24 25 26 25 23 22 21 19 18 19 18 18 17 16 15 14 14 14 13 12 12 10 8 6 6 7 7 7 7 5 3 5 7 6 6 6 6 8 10
24 25 26 25 25 24 24 23 21 20 18 18 18 19 19 19 18 17 15 14 13 12 12 12 11 9 7 6 6 7 8 8 5 3 6 6 5 5 5 6 6 7
27 27 27 26 25 23 22 22 21 20 19 19 19 20 20 19 18 18 17 15 14 12 11 11 12 10 8 7 7 6 7 9 9 9 9 8 7 7 6 6 6 5
30 28 27 27 26 23 20 20 20 20 19 18 19 19 18 16 16 17 17 15 14 13 11 11 11 10 9 8 7 6 6 7 9 11 12 11 11 11 8 5 6 7
30 29 28 27 26 24 21 19 18 18 18 18 18 19 18 16 15 15 15 14 12 10 9 9 9 8 8 7 7 6 6 5 6 8 9 8 9 11 10 8 8 7
Wind_Direction
161 158 159 153 152 155 157 157 158 164 165 162 164 164 164 163 162 162 159 161 163 166 183 179 177 183 174 166 160 165 167 158 159 170 171 164 166 174 175 172 174 167
159 157 155 148 151 154 150 148 151 157 159 157 159 157 154 157 160 160 159 159 160 162 165 163 169 173 162 155 156 162 166 156 155 169 178 163 159 173 177 168 170 169
159 161 159 152 150 150 146 145 149 152 151 149 148 148 151 156 159 160 160 163 160 152 144 146 154 149 143 148 153 157 159 159 156 159 173 175 168 176 182 179 180 176
158 164 169 159 151 149 147 146 146 145 142 143 145 147 151 155 157 160 158 154 145 139 137 138 133 128 132 137 144 151 151 154 156 154 161 179 181 178 178 182 184 177
157 166 172 164 155 152 149 147 146 144 143 146 147 149 152 154 156 155 154 150 142 139 138 136 133 133 136 133 133 142 139 142 151 153 155 164 176 179 172 174 178 174
155 162 165 160 155 152 150 151 150 147 148 148 148 152 152 153 157 154 154 153 145 144 143 140 139 136 137 138 139 149 144 138 144 148 148 154 165 174 169 171 177 173
156 158 158 157 158 159 157 155 151 149 150 149 149 152 150 152 157 154 156 157 151 152 148 144 143 139 137 139 144 152 144 143 151 154 157 159 160 164 170 177 178 172
158 157 157 160 164 165 159 154 152 150 151 150 149 149 152 155 153 148 153 154 149 144 136 134 137 135 134 136 142 144 135 144 156 157 160 160 156 161 172 180 176 170
159 157 159 163 165 164 159 154 153 152 151 151 150 148 151 153 148 149 151 142 134 126 120 120 120 125 136 139 140 145 142 148 159 157 152 150 154 165 172 176 172 168
158 159 162 167 166 161 160 157 154 155 154 152 150 148 148 147 146 150 148 136 128 120 116 116 115 118 132 136 137 148 150 147 151 155 156 156 163 168 165 160 160 166
158 157 162 166 166 162 161 158 156 157 156 154 151 147 145 146 147 148 144 134 130 132 127 123 124 121 121 123 124 134 144 147 143 141 158 167 165 168 164 154 155 166
158 158 162 164 165 164 160 158 161 160 157 156 152 147 147 150 152 154 149 142 150 156 136 118 118 121 117 114 110 109 114 130 136 139 170 172 155 152 150 139 148 166
162 160 162 163 164 163 160 161 163 161 158 157 150 145 147 151 151 149 145 143 145 132 112 101 99 107 112 109 106 107 83 91 115 123 143 141 118 124 131 120 130 152
164 163 165 165 162 161 162 163 161 158 157 153 145 145 149 148 144 140 137 132 114 97 98 98 94 100 108 103 98 108 92 80 96 89 90 104 81 86 111 111 112 123
163 166 168 165 161 162 163 160 157 159 156 148 144 146 146 141 139 140 131 117 105 95 96 95 87 90 98 96 95 101 97 94 117 90 82 101 79 71 92 104 110 118
164 168 172 164 160 162 160 155 158 160 151 144 146 145 141 138 139 135 120 112 111 105 99 93 87 85 85 89 96 97 92 109 145 146 115 115 118 111 114 117 127 140
167 168 174 170 161 157 154 153 157 154 147 148 147 140 137 136 133 125 117 118 123 117 104 96 92 88 84 93 103 100 96 100 110 137 157 162 173 177 168 150 147 149
169 164 169 167 155 148 146 143 139 137 140 143 138 135 135 127 120 118 113 113 115 112 108 105 103 100 94 106 118 118 115 100 84 96 155 184 166 150 140 156 160 145
164 160 159 150 140 137 135 131 126 124 127 128 127 129 128 116 114 117 112 109 111 112 113 115 116 116 111 123 136 137 142 119 69 66 109 133 111 87 61 85 125 119
143 145 140 134 133 133 130 127 124 121 120 122 123 122 118 113 114 115 110 110 116 120 124 124 120 122 126 136 140 140 155 138 58 54 75 78 78 79 72 73 79 83
114 117 119 123 127 129 128 126 124 119 116 120 120 116 114 114 113 113 112 116 120 123 124 118 113 118 128 137 142 142 140 115 67 56 68 67 72 81 82 80 73 72
101 103 105 109 115 120 120 120 121 119 117 120 119 114 112 110 105 103 106 112 118 122 117 107 103 109 114 123 135 135 124 107 85 74 80 77 81 84 82 95 95 85
91 95 95 96 100 106 109 113 117 118 118 122 121 116 112 109 107 104 103 105 110 113 110 101 94 91 91 103 116 116 110 98 80 86 108 98 82 83 96 116 112 89
78 83 87 88 88 88 95 105 112 114 116 121 122 117 113 112 113 112 107 104 103 102 99 96 89 81 75 82 94 98 96 81 59 65 93 87 63 72 103 128 125 110
69 73 76 80 82 81 85 94 101 106 111 115 114 112 111 112 117 117 111 106 104 100 95 90 85 80 73 73 77 80 88 84 69 74 84 74 57 63 81 108 112 107
63 66 68 71 75 77 78 83 90 96 103 109 110 111 110 109 112 113 109 103 98 91 81 71 64 60 57 57 60 62 66 73 75 75 75 65 54 54 62 72 73 69